Location: Lafig�re
(44.4503°N, 4.0357°E)
Time: 16:11:35
(UTC+00:00)

Cosmos 1833 Rocket - Pass Details

Date: 24 September 2020
Orbit: 831 x 841 km, 71.0° (Epoch: 25 October)

Event Time Altitude Azimuth Distance (km) Brightness Sun altitude
Rises 20:03:34 0° 335° (NNW) 3,406 6.6 -26.1°
Reaches altitude 10° 20:06:01 10° 336° (NNW) 2,468 5.8 -26.5°
Enters shadow 20:11:40 83° 55° (NE) 854 2.5 -27.4°
